Location: Bazugues
(43.4465°N, 0.3432°E)
Time: 06:16:04
(UTC+00:00)

SMAP - Pass Details

Date: 12 January 2026
Orbit: 681 x 683 km, 98.1° (Epoch: 10 February)

Event Time Altitude Azimuth Distance (km) Brightness Sun altitude
Rises 17:35:47 0° 174° (S) 3,031 6.6 -9.3°
Reaches altitude 10° 17:38:02 10° 177° (S) 2,120 5.8 -9.6°
Maximum altitude 17:42:37 63° 259° (WSW) 765 3.6 -10.4°
Drops below altitude 10° 17:47:16 10° 340° (NNW) 2,136 5.6 -11.2°
Sets 17:49:32 0° 344° (NNW) 3,055 6.4 -11.6°
